Wind_Speed
11 9 9 7 6 5 6 6 6 6 7 7 8 8 9 9 10 10 11 11 11 11 11 12 12 13 14 14 15 15 16 17 19 21 23 24 25 26 27 28 28 29 30 30 30 30 27 22 19 19 20 21 22 24 24 25 26 26 26 28 31 32 32
11 10 9 7 6 6 6 6 7 7 8 8 9 9 10 10 11 11 11 12 12 12 13 13 13 14 14 15 16 16 17 19 22 23 24 25 25 25 25 25 25 25 25 26 27 27 27 25 21 19 18 17 18 20 22 21 23 24 26 27 29 30 32
13 11 10 9 7 6 7 7 8 8 9 10 11 11 12 12 13 13 13 13 13 14 14 14 14 15 15 16 17 18 20 22 24 25 25 25 25 25 24 23 22 22 22 23 24 24 25 25 24 22 20 17 15 16 19 19 19 21 23 25 26 27 30
14 13 12 10 8 8 9 9 10 10 11 11 12 13 14 14 15 15 15 15 15 15 15 15 16 16 16 17 18 20 22 24 24 25 25 25 25 24 23 22 22 22 22 22 23 24 25 26 25 24 22 20 18 17 18 19 19 20 21 23 24 26 28
14 14 13 11 9 11 12 12 12 12 13 13 14 15 16 16 17 17 17 17 16 16 16 16 16 17 17 18 19 21 23 23 24 24 24 24 24 24 23 22 23 23 23 24 24 25 26 26 26 25 24 22 20 19 18 18 19 20 21 22 23 25 27
14 14 14 13 12 13 14 14 14 14 15 15 16 17 17 18 18 18 18 18 17 17 17 17 17 17 17 18 20 21 22 22 23 23 24 23 23 24 23 23 24 24 25 25 25 26 27 27 27 27 26 25 23 21 20 19 19 21 22 22 23 24 25
14 14 15 15 15 16 16 16 16 17 17 17 18 18 18 19 19 19 19 19 18 17 17 17 17 17 17 18 20 21 21 21 22 22 23 23 23 23 24 24 24 25 25 26 26 27 27 28 29 29 29 27 25 24 23 22 22 22 23 23 24 25 25
14 14 15 16 16 17 17 18 19 19 19 19 19 19 19 20 20 20 19 18 18 17 17 16 16 16 17 18 19 19 20 20 21 22 22 23 23 23 24 24 25 25 26 26 27 28 29 30 31 32 33 32 30 27 25 24 24 24 25 25 25 27 27
15 15 15 16 16 17 18 19 20 20 20 19 19 19 20 20 20 19 18 17 17 16 16 16 16 16 17 17 18 18 19 20 21 21 22 22 23 23 24 24 25 25 26 27 28 29 30 31 32 33 35 36 36 34 30 26 25 26 26 26 25 26 28
16 16 16 16 17 18 19 20 20 20 20 19 20 20 20 20 19 18 17 16 16 16 15 15 15 15 16 16 17 18 19 19 20 21 21 22 23 23 24 25 25 26 27 28 28 29 30 31 32 33 35 37 39 39 38 34 29 29 29 29 28 28 29
15 16 16 17 17 19 20 20 20 20 20 19 19 19 19 18 17 16 15 15 15 15 14 14 14 15 15 16 16 17 18 19 20 20 21 22 22 23 24 25 25 26 27 28 29 30 30 31 32 33 34 36 38 40 42 41 36 33 33 32 31 31 31
13 13 13 14 15 17 19 20 20 19 19 19 18 18 17 15 15 14 14 14 14 13 13 13 13 14 14 15 15 16 17 18 20 20 21 22 23 23 24 25 26 26 28 29 30 30 31 32 33 33 34 36 38 39 41 43 41 37 36 36 33 32 33
10 10 10 11 13 15 17 18 18 18 17 17 16 15 14 13 13 13 13 13 12 12 11 11 12 12 13 14 15 16 18 19 20 21 21 22 22 23 24 25 26 27 28 29 30 31 32 32 33 34 35 35 37 38 40 42 43 40 39 39 38 35 35
9 9 10 10 11 13 14 14 14 14 14 13 13 12 12 12 12 12 12 11 10 10 10 10 11 12 13 14 16 17 18 19 20 21 22 22 22 22 24 25 26 27 29 29 30 31 32 32 33 34 35 35 36 38 39 41 43 43 41 41 41 39 37
8 8 9 9 10 10 10 11 11 11 11 11 11 11 11 11 11 11 10 9 9 9 9 10 11 12 13 15 16 17 19 20 20 21 22 22 22 23 24 25 26 28 29 30 31 31 32 33 34 34 35 36 36 37 39 41 42 44 44 42 43 42 40
8 8 8 8 8 8 8 8 9 9 10 10 10 10 10 10 10 9 9 8 8 8 9 10 11 12 14 15 17 18 19 20 20 21 22 22 23 23 24 25 26 28 29 30 31 32 33 33 34 35 35 36 37 37 39 40 42 43 44 43 44 44 43
8 8 8 8 7 7 7 8 8 9 9 9 9 9 9 9 9 8 8 7 7 8 9 10 11 13 14 16 17 19 20 20 21 21 22 23 23 24 25 26 27 28 29 30 30 31 32 33 34 35 35 36 37 38 39 40 41 42 43 43 43 44 44
9 9 8 8 7 7 7 7 8 8 9 9 9 9 9 9 8 8 7 7 7 8 9 11 12 14 15 17 18 19 20 20 21 21 22 23 24 24 25 26 27 28 29 30 30 30 31 32 34 35 36 36 37 38 39 39 40 41 42 43 43 43 44
9 9 8 7 7 7 7 7 8 8 9 9 9 9 9 8 7 7 6 7 7 8 10 11 13 15 16 18 19 19 20 20 21 21 22 23 24 25 26 26 27 27 29 30 31 31 32 33 34 35 36 37 38 38 39 40 41 42 42 43 43 43 43
10 8 7 7 6 7 7 7 8 8 8 8 9 8 8 7 6 6 6 7 8 9 10 12 14 16 17 18 19 19 20 20 20 21 22 23 24 26 27 27 27 28 29 31 32 33 33 34 34 35 36 37 38 39 40 41 42 43 43 43 43 43 42
9 8 7 6 6 7 7 8 8 8 8 8 8 8 7 6 5 6 6 7 8 10 12 13 15 16 17 18 18 19 19 19 20 20 22 23 24 25 27 28 28 29 29 31 32 33 34 35 35 35 36 37 38 40 41 43 44 44 45 45 44 44 43
9 7 6 6 7 7 8 8 8 8 8 8 8 7 7 6 5 6 6 7 9 11 13 14 16 16 17 17 18 18 18 19 20 21 22 24 25 26 26 28 29 29 29 29 30 32 33 34 35 36 37 38 40 42 43 44 45 45 46 46 46 46 46
8 7 7 7 7 8 8 8 8 9 8 8 8 7 6 6 6 6 7 8 10 12 13 15 15 16 16 17 17 18 18 20 21 22 22 23 25 25 26 27 28 28 28 28 29 30 31 32 33 35 37 39 41 42 44 44 44 45 46 46 46 47 47
8 8 7 7 8 8 8 9 9 9 9 8 8 7 6 5 6 6 8 9 11 12 13 14 14 15 16 16 17 18 19 20 21 22 22 22 23 25 25 26 27 27 28 29 29 30 31 32 33 35 37 39 40 41 43 44 44 45 45 46 45 45 45
9 8 8 8 9 9 9 9 9 9 9 9 8 7 6 5 5 7 8 10 11 12 13 13 14 15 15 16 17 18 19 20 20 21 21 21 22 23 24 25 26 27 28 29 29 30 31 32 34 35 36 37 38 39 40 42 43 44 44 44 43 41 41
9 9 9 9 9 9 9 9 9 9 9 8 7 6 5 5 6 7 9 11 11 12 12 13 14 14 15 16 17 18 18 19 20 21 21 22 22 23 24 25 26 27 28 29 29 30 32 33 35 35 35 35 36 37 38 38 39 40 41 41 40 39 38
10 10 10 9 9 9 9 9 9 10 9 8 7 5 4 5 6 8 10 10 11 11 12 12 13 14 15 16 17 18 18 19 19 20 21 22 22 23 25 26 26 27 28 29 30 31 33 35 35 35 35 35 35 36 37 37 37 38 38 38 37 36 37
12 11 10 9 9 9 10 10 10 10 9 8 6 4 4 6 7 9 9 10 10 11 11 12 13 14 15 16 17 17 18 18 19 19 20 22 23 24 25 26 26 27 28 30 31 33 34 35 36 35 34 34 35 36 36 37 37 38 38 36 34 34 36
12 11 10 10 10 10 10 10 10 10 9 7 5 4 5 6 8 8 8 9 10 11 11 12 13 14 15 16 16 17 17 17 18 19 20 21 22 23 24 25 26 27 29 30 32 33 34 35 35 35 34 34 35 35 35 36 36 37 37 36 33 32 34
12 11 11 10 10 10 10 11 11 10 8 6 4 4 5 7 7 7 7 8 9 10 11 12 13 14 15 15 15 16 16 17 18 19 20 21 22 23 24 25 26 27 29 30 32 33 33 34 35 35 35 35 35 35 36 37 37 37 37 36 33 32 33
12 12 11 11 11 11 11 11 11 10 7 5 4 5 6 6 6 6 7 8 9 10 11 12 12 13 13 14 14 15 15 17 18 19 20 21 22 23 24 25 26 28 29 30 31 31 33 34 35 36 36 37 36 37 38 39 39 39 39 38 36 33 33
13 12 12 11 11 11 12 12 11 9 7 6 5 5 5 5 5 6 6 7 9 9 10 11 11 11 12 12 13 14 16 17 18 19 20 21 22 23 24 25 27 28 29 29 29 30 32 34 35 36 37 37 37 38 39 40 41 42 42 41 39 36 35
14 13 12 12 12 13 13 12 10 9 7 6 5 4 4 4 4 5 6 7 8 8 9 9 9 10 11 11 12 14 16 17 18 19 20 21 22 23 24 25 27 28 27 27 28 29 31 33 34 35 36 37 38 39 40 41 41 42 43 43 41 38 36
14 14 13 13 13 14 13 12 11 9 7 6 5 4 4 3 3 4 5 6 6 7 7 7 8 9 10 12 14 15 17 17 18 19 19 20 22 23 24 26 26 26 26 27 28 29 31 32 34 35 36 37 38 38 39 40 41 42 43 44 43 40 38
15 15 14 15 15 15 14 13 11 9 7 6 5 4 3 2 3 3 4 4 5 5 5 7 8 9 11 13 15 17 17 18 19 19 19 21 22 24 25 26 26 26 26 27 28 30 31 32 34 35 35 36 36 37 37 39 41 42 43 44 45 42 39
16 15 16 16 16 16 14 13 11 9 7 6 5 4 2 1 1 2 3 3 3 4 5 7 9 10 12 14 16 17 18 18 19 19 20 21 23 24 25 25 26 26 27 28 29 30 32 33 34 35 35 36 36 37 37 38 40 42 43 45 46 45 42
17 17 17 18 18 16 15 13 11 9 7 6 6 4 2 1 1 0 1 2 3 4 6 8 9 11 13 15 16 17 18 19 19 20 21 22 23 24 25 26 26 27 27 28 29 31 32 33 34 35 35 36 37 37 38 39 40 42 44 45 47 47 44
Wind_Direction
190 217 218 213 226 243 254 260 264 273 285 301 314 320 324 323 323 323 323 322 320 319 321 323 324 324 324 322 320 320 321 323 324 325 325 324 323 322 320 319 319 319 318 318 317 316 317 316 311 305 302 300 298 295 294 292 291 289 285 283 283 284 285
212 227 221 223 234 239 253 262 266 277 286 299 308 311 315 315 314 315 314 313 311 311 312 314 316 316 317 317 318 319 321 322 323 324 325 324 323 321 320 319 318 317 316 316 317 317 317 318 316 311 305 301 297 296 295 293 290 289 286 284 283 284 283
223 230 229 231 239 251 265 274 279 287 293 297 301 304 306 307 308 308 307 306 305 304 305 308 309 311 314 316 318 320 320 322 323 324 325 325 324 323 322 321 319 317 316 314 314 313 313 314 314 314 311 306 298 293 294 293 290 289 289 288 287 285 284
229 233 235 238 254 271 276 284 289 291 294 295 296 298 300 301 303 303 302 302 300 300 301 303 306 309 313 316 317 318 320 322 323 324 326 326 325 325 324 323 320 318 317 315 313 312 312 312 312 313 313 312 309 302 298 295 293 290 288 289 291 291 290
234 237 241 250 266 275 277 282 286 288 290 292 293 295 296 297 299 299 299 299 298 298 299 301 305 308 311 313 315 318 320 322 324 325 326 326 324 324 323 322 320 320 320 319 317 317 316 315 315 316 316 315 314 312 307 302 298 294 289 287 288 290 291
242 245 250 259 265 268 273 278 283 285 287 289 291 293 294 295 296 296 296 297 297 298 299 301 305 307 309 312 315 319 321 322 323 324 323 323 322 322 322 322 322 323 323 323 323 322 322 320 319 319 318 318 317 316 314 310 304 300 296 293 289 286 287
254 258 261 264 265 267 273 279 282 285 286 288 290 291 293 292 293 293 294 295 297 298 300 302 304 306 309 313 317 320 321 321 321 321 321 321 321 322 323 324 325 326 326 327 327 326 325 323 321 320 319 319 319 318 318 316 311 305 301 300 297 291 287
259 263 265 267 269 272 276 280 282 285 287 288 289 290 290 290 290 291 292 294 297 299 300 301 303 306 310 314 317 319 319 320 320 321 322 323 324 325 326 327 328 329 330 329 329 327 326 326 325 323 321 320 319 317 316 316 314 310 305 303 302 299 295
265 267 269 271 274 275 277 280 282 285 286 286 287 287 287 288 289 289 291 293 296 298 299 300 303 307 311 314 316 318 319 320 322 324 325 325 327 328 329 330 331 331 331 330 329 329 328 327 326 325 323 321 319 317 315 315 314 310 307 304 301 299 298
270 274 276 277 276 277 278 280 282 282 283 283 283 284 285 286 287 288 290 293 296 297 298 300 304 307 311 313 316 319 321 323 325 326 327 328 330 331 331 332 332 332 331 330 329 328 328 327 326 324 323 322 321 321 319 319 319 315 312 310 307 303 300
271 276 280 279 277 277 277 278 279 279 279 280 280 282 283 285 286 288 291 293 294 295 296 299 303 307 311 314 318 322 324 326 327 328 329 330 332 332 331 332 332 331 330 329 328 328 327 327 326 325 325 324 323 323 322 322 324 322 318 316 314 310 306
274 277 278 278 276 275 274 274 275 275 276 278 280 282 283 285 287 289 291 291 291 292 295 299 304 309 313 318 323 326 327 328 328 329 330 331 332 333 332 332 332 330 329 329 328 329 328 328 328 327 327 327 325 324 322 321 322 323 320 317 316 313 310
274 276 276 274 272 270 270 270 271 273 276 278 281 283 285 286 287 287 287 286 287 289 294 300 307 313 318 323 326 328 328 329 330 332 332 332 333 333 332 332 331 330 329 329 329 330 330 329 329 328 327 326 324 322 321 320 319 320 320 318 317 315 312
269 274 275 273 272 270 268 269 271 274 277 279 281 283 285 285 284 284 282 282 284 289 296 304 311 318 323 327 329 329 330 331 333 333 332 332 333 333 332 331 331 330 329 330 331 331 330 330 329 328 326 325 323 322 321 319 318 318 319 318 317 316 313
270 276 276 273 272 270 270 272 274 278 279 280 283 283 282 281 279 278 277 279 286 292 302 310 316 323 327 330 331 331 332 333 333 333 331 332 334 333 333 332 332 331 331 332 332 331 331 330 328 327 326 324 324 323 321 321 320 319 319 318 317 316 314
277 281 280 278 279 279 281 283 282 283 282 281 283 281 278 276 273 273 275 279 288 297 308 316 322 327 330 332 333 332 333 334 334 333 332 332 334 334 333 334 333 333 333 332 333 332 331 329 328 327 326 326 325 325 324 323 322 320 320 319 319 317 315
287 291 291 291 295 294 291 288 284 283 282 282 282 278 274 272 270 271 273 280 293 304 315 322 326 330 332 333 334 334 335 335 335 334 333 333 334 334 334 335 335 334 333 333 332 332 330 329 328 328 328 328 328 328 327 326 324 323 322 322 321 320 319
294 294 296 298 298 295 289 284 281 282 283 282 278 272 269 268 265 267 275 289 303 313 321 326 329 332 334 335 336 336 336 335 336 335 333 333 333 334 336 337 337 335 333 332 331 331 331 331 331 331 331 331 331 330 329 328 328 328 326 325 324 323 322
292 292 295 295 292 288 282 281 282 282 281 276 270 266 262 258 259 268 284 298 310 318 324 329 332 334 336 337 337 336 336 336 337 335 333 333 334 336 337 337 337 335 334 332 332 333 334 335 335 334 334 334 333 332 333 333 332 331 330 328 327 325 324
289 288 290 287 282 279 277 279 279 276 272 266 261 257 250 250 260 276 293 303 312 323 327 331 335 336 338 338 337 337 337 336 335 335 335 336 337 337 336 336 336 336 336 335 335 336 337 337 337 337 336 335 335 336 337 337 336 334 332 332 330 329 327
283 281 280 274 271 270 269 272 271 266 264 258 250 244 242 252 271 283 297 308 318 326 331 334 337 338 338 338 337 337 336 335 335 336 337 337 337 336 336 336 337 338 339 339 339 339 338 338 338 338 337 337 338 341 342 341 338 337 335 334 333 331 330
272 269 265 260 259 262 262 264 263 259 255 247 239 240 248 263 277 288 302 315 323 330 335 338 339 339 338 337 337 336 335 336 337 338 339 338 337 337 338 337 338 340 341 342 341 341 340 340 339 339 340 342 344 345 344 342 340 339 337 336 334 333 331
261 257 254 253 254 256 258 258 255 251 244 236 235 243 255 268 280 296 311 322 330 335 338 339 339 338 337 337 337 337 338 339 339 340 342 340 337 338 339 339 340 340 341 342 343 342 342 342 342 343 345 347 348 347 344 342 341 339 337 336 335 334 332
251 248 247 249 250 252 253 250 246 241 235 231 235 245 256 268 284 304 316 325 332 336 338 338 337 337 338 338 338 340 340 341 341 341 342 341 339 339 341 341 340 341 342 343 344 344 344 344 346 347 349 351 349 346 343 342 341 339 337 335 335 334 332
242 241 240 243 246 247 245 239 234 232 229 231 238 247 255 268 290 309 319 327 334 336 337 337 337 338 340 340 341 342 342 342 342 341 339 340 341 341 341 341 342 343 344 344 344 345 346 347 349 351 352 351 348 345 344 342 341 339 337 335 334 335 335
234 233 235 239 242 240 236 231 228 228 230 234 239 242 251 274 300 314 323 330 334 336 337 338 340 341 342 343 343 343 343 343 342 340 340 341 343 343 343 344 346 346 346 345 345 347 348 350 352 353 352 350 347 345 344 343 341 338 337 337 336 337 339
227 230 234 237 237 233 229 227 228 231 232 230 228 235 259 290 310 320 327 331 334 336 339 341 343 343 344 345 345 344 344 344 342 341 343 344 345 346 347 348 348 348 348 347 347 349 351 352 353 353 351 348 347 346 344 343 342 340 340 340 338 338 341
226 229 233 234 234 232 230 230 230 228 221 216 220 243 280 303 316 323 327 331 334 338 341 343 345 346 347 347 346 345 345 345 344 345 346 348 349 351 351 350 350 350 350 350 350 352 354 353 353 352 350 348 348 347 345 345 344 343 343 343 340 339 340
225 227 230 234 236 235 233 229 221 213 208 212 228 260 292 308 317 323 326 331 336 340 345 348 349 349 349 347 347 347 347 347 347 349 351 352 353 354 353 352 352 353 353 353 354 355 355 353 352 351 350 349 349 349 347 347 347 346 346 345 341 339 339
223 226 231 237 237 233 226 215 206 203 208 219 237 269 295 307 316 322 326 332 339 345 349 351 352 351 349 348 349 349 350 351 352 354 355 355 355 356 356 355 355 356 356 356 356 356 353 352 352 351 351 351 351 350 349 349 349 349 349 347 344 341 339
222 227 234 237 232 222 212 203 201 205 213 223 244 274 295 306 314 318 326 336 345 351 353 354 354 352 349 350 351 352 355 357 358 359 359 358 358 359 359 359 359 358 358 359 357 354 352 353 353 352 352 351 351 351 352 352 351 351 351 350 347 344 342
223 229 234 231 220 210 203 201 204 208 213 227 251 277 293 301 309 318 332 345 350 354 357 356 354 353 353 355 357 360 2 3 3 4 2 1 2 2 1 1 2 2 1 359 356 353 353 354 355 354 353 351 352 354 355 354 352 352 353 352 350 347 344
224 228 229 221 211 205 202 202 205 208 215 234 256 275 285 291 308 327 341 350 356 359 358 356 356 359 1 3 7 10 9 8 8 7 5 5 5 4 4 5 5 3 1 358 356 356 356 356 356 356 354 353 354 356 357 355 353 353 355 354 351 348 346
223 225 221 213 208 205 203 203 206 210 219 238 256 263 268 284 314 336 348 355 360 360 360 3 6 8 11 15 18 19 15 12 12 9 7 8 8 7 8 9 6 3 1 1 360 360 359 358 358 358 356 356 357 357 356 355 354 356 357 356 353 351 349
223 221 215 209 206 204 203 204 207 213 223 235 243 245 251 285 321 339 354 3 5 4 9 18 21 21 24 27 27 24 20 17 16 12 9 11 11 10 10 9 6 4 4 4 4 3 3 2 360 359 358 358 357 358 357 356 356 358 360 359 356 354 353
223 217 210 205 203 202 203 205 208 214 224 233 233 232 235 267 322 342 357 9 22 29 33 37 36 33 32 33 32 28 23 21 17 14 13 15 13 11 10 9 7 5 6 6 7 7 7 4 1 359 359 359 359 359 358 358 359 1 2 1 360 358 358
220 212 205 201 201 201 202 205 209 216 224 228 225 219 214 215 212 149 55 40 46 50 49 47 43 39 37 36 33 28 24 20 17 14 16 16 14 11 10 9 7 6 6 7 9 10 9 7 3 1 0 1 1 360 360 1 2 3 4 4 2 1 1
Height
3171 3172 3172 3173 3174 3174 3174 3174 3175 3175 3176 3175 3175 3175 3174 3174 3174 3173 3172 3172 3171 3170 3170 3169 3169 3168 3168 3167 3167 3166 3166 3165 3163 3162 3160 3158 3156 3153 3150 3147 3144 3141 3138 3136 3135 3134 3134 3137 3137 3136 3134 3132 3129 3128 3127 3125 3123 3122 3120 3117 3115 3113 3112
3170 3170 3171 3172 3172 3173 3173 3174 3174 3174 3174 3174 3173 3173 3173 3173 3172 3172 3171 3170 3170 3169 3168 3168 3168 3167 3167 3166 3165 3165 3164 3163 3161 3160 3158 3156 3154 3151 3149 3146 3144 3141 3139 3136 3133 3131 3130 3130 3132 3132 3132 3131 3128 3125 3124 3123 3121 3118 3116 3114 3112 3110 3108
3169 3170 3170 3171 3171 3172 3172 3172 3172 3172 3172 3172 3172 3172 3172 3171 3171 3170 3170 3169 3168 3168 3167 3167 3166 3166 3165 3164 3164 3163 3162 3161 3159 3157 3156 3153 3151 3149 3147 3145 3143 3140 3138 3136 3133 3131 3129 3128 3127 3127 3128 3128 3127 3124 3122 3120 3118 3116 3113 3111 3109 3107 3105
3168 3169 3169 3170 3170 3170 3170 3171 3171 3171 3170 3170 3171 3170 3170 3170 3169 3169 3168 3168 3167 3166 3166 3165 3165 3164 3163 3163 3162 3161 3160 3159 3157 3155 3153 3151 3149 3147 3145 3143 3140 3138 3136 3134 3132 3129 3127 3126 3124 3124 3123 3123 3123 3122 3120 3118 3115 3113 3111 3109 3107 3104 3102
3167 3167 3168 3168 3169 3169 3169 3169 3169 3169 3169 3169 3169 3169 3168 3168 3168 3167 3167 3166 3165 3165 3164 3163 3163 3162 3162 3161 3160 3159 3158 3156 3155 3153 3151 3149 3147 3144 3143 3140 3138 3136 3133 3131 3129 3127 3125 3123 3121 3120 3120 3119 3119 3118 3117 3115 3113 3110 3108 3107 3105 3102 3100
3165 3166 3166 3166 3167 3167 3167 3167 3168 3168 3167 3167 3167 3167 3166 3166 3166 3165 3165 3164 3164 3163 3162 3162 3161 3161 3160 3159 3158 3157 3156 3154 3153 3151 3149 3147 3145 3143 3140 3138 3135 3133 3131 3128 3126 3124 3122 3120 3118 3117 3116 3116 3115 3114 3113 3112 3110 3108 3105 3104 3102 3100 3098
3164 3164 3164 3164 3165 3166 3166 3166 3166 3166 3165 3165 3165 3165 3164 3164 3164 3163 3163 3162 3162 3161 3161 3160 3160 3159 3158 3157 3156 3155 3153 3152 3151 3149 3147 3145 3143 3141 3138 3136 3133 3131 3128 3126 3124 3121 3119 3117 3115 3113 3112 3112 3112 3111 3110 3108 3107 3105 3103 3101 3098 3097 3095
3162 3162 3162 3163 3163 3164 3164 3164 3163 3163 3163 3163 3163 3162 3162 3162 3162 3161 3161 3160 3160 3160 3159 3158 3158 3157 3156 3155 3154 3153 3151 3150 3149 3147 3145 3143 3141 3138 3136 3133 3131 3128 3126 3123 3121 3119 3116 3114 3111 3109 3107 3106 3106 3107 3107 3106 3103 3101 3099 3097 3095 3092 3091
3161 3161 3161 3161 3161 3161 3161 3161 3161 3161 3161 3161 3160 3160 3160 3160 3160 3160 3159 3159 3159 3158 3157 3157 3156 3155 3154 3153 3152 3151 3149 3148 3146 3145 3143 3140 3138 3136 3133 3131 3128 3126 3123 3121 3119 3116 3114 3111 3109 3106 3103 3100 3099 3099 3100 3102 3100 3097 3095 3094 3092 3090 3087
3159 3158 3158 3159 3159 3159 3159 3159 3159 3159 3159 3159 3159 3158 3158 3158 3158 3158 3158 3157 3157 3156 3156 3155 3154 3153 3152 3151 3150 3148 3147 3146 3144 3142 3140 3138 3136 3133 3131 3129 3126 3124 3121 3119 3117 3115 3112 3110 3107 3104 3101 3097 3094 3091 3091 3093 3095 3093 3090 3088 3087 3085 3083
3156 3156 3156 3156 3157 3157 3157 3157 3157 3157 3157 3157 3157 3157 3157 3157 3157 3156 3156 3156 3155 3155 3154 3153 3152 3151 3150 3149 3148 3146 3145 3143 3142 3140 3138 3136 3134 3132 3129 3127 3124 3122 3120 3117 3115 3113 3110 3108 3105 3102 3099 3095 3092 3088 3085 3084 3086 3087 3085 3083 3082 3080 3078
3155 3154 3154 3155 3155 3155 3155 3155 3155 3155 3155 3155 3155 3155 3155 3155 3155 3155 3154 3154 3154 3153 3152 3151 3150 3149 3148 3147 3146 3144 3143 3142 3140 3138 3136 3134 3132 3130 3127 3125 3123 3120 3118 3115 3113 3111 3108 3105 3103 3100 3097 3094 3090 3087 3083 3079 3079 3081 3079 3077 3078 3076 3073
3153 3153 3153 3153 3153 3153 3153 3153 3153 3153 3154 3154 3154 3154 3153 3153 3153 3153 3153 3152 3152 3151 3150 3149 3148 3147 3146 3145 3144 3142 3141 3140 3138 3136 3134 3132 3130 3128 3125 3123 3121 3118 3116 3113 3111 3108 3106 3103 3100 3098 3095 3093 3089 3085 3082 3078 3075 3075 3075 3071 3070 3071 3069
3151 3151 3151 3151 3151 3151 3151 3151 3152 3152 3152 3152 3152 3152 3152 3152 3152 3152 3151 3151 3150 3149 3149 3148 3147 3146 3145 3143 3142 3141 3139 3137 3136 3133 3131 3129 3128 3126 3123 3121 3119 3116 3114 3111 3109 3106 3104 3101 3099 3096 3093 3091 3088 3084 3080 3077 3072 3070 3070 3068 3065 3064 3063
3149 3149 3149 3149 3149 3149 3149 3150 3150 3150 3150 3150 3150 3150 3150 3150 3150 3150 3150 3149 3149 3148 3147 3146 3145 3144 3143 3141 3140 3139 3137 3135 3134 3131 3129 3127 3126 3124 3122 3119 3117 3114 3112 3109 3107 3104 3102 3099 3096 3094 3091 3088 3085 3081 3077 3074 3070 3066 3064 3062 3059 3057 3056
3147 3147 3147 3147 3147 3147 3147 3148 3148 3148 3148 3148 3148 3148 3149 3149 3149 3148 3148 3148 3147 3146 3146 3145 3144 3142 3141 3140 3138 3137 3135 3133 3131 3129 3127 3125 3124 3122 3120 3118 3115 3112 3110 3107 3105 3102 3099 3097 3094 3091 3088 3085 3081 3078 3075 3070 3067 3062 3059 3057 3054 3050 3048
3145 3145 3145 3145 3145 3145 3145 3146 3146 3146 3146 3147 3147 3147 3147 3147 3147 3147 3146 3146 3146 3145 3144 3143 3142 3141 3139 3138 3136 3135 3133 3131 3129 3127 3125 3123 3122 3120 3118 3116 3113 3110 3108 3105 3103 3101 3098 3095 3091 3088 3085 3082 3078 3075 3072 3068 3064 3060 3055 3052 3049 3045 3042
3143 3143 3143 3143 3143 3144 3144 3144 3144 3145 3145 3146 3146 3146 3146 3146 3145 3145 3145 3145 3144 3144 3143 3142 3140 3139 3138 3136 3134 3133 3131 3129 3128 3125 3123 3121 3120 3118 3116 3114 3111 3109 3106 3104 3101 3099 3096 3092 3089 3086 3082 3079 3076 3072 3068 3064 3060 3056 3052 3048 3044 3041 3037
3141 3141 3141 3141 3142 3142 3142 3143 3143 3144 3144 3144 3144 3144 3144 3144 3144 3144 3144 3144 3143 3142 3141 3140 3139 3137 3136 3134 3133 3131 3129 3127 3126 3124 3122 3120 3118 3115 3114 3112 3110 3107 3104 3102 3099 3096 3093 3090 3086 3083 3080 3076 3073 3069 3065 3061 3057 3053 3049 3045 3040 3037 3033
3139 3139 3140 3140 3140 3141 3141 3142 3142 3142 3143 3143 3143 3143 3143 3143 3144 3143 3143 3142 3142 3141 3140 3138 3137 3135 3134 3132 3131 3129 3127 3126 3124 3123 3120 3118 3116 3113 3111 3110 3108 3105 3102 3099 3096 3093 3090 3087 3084 3081 3077 3073 3070 3066 3062 3057 3053 3049 3045 3041 3037 3033 3029
3137 3138 3138 3139 3139 3140 3140 3140 3141 3141 3141 3142 3142 3142 3142 3143 3143 3142 3142 3141 3140 3139 3138 3137 3135 3134 3132 3131 3129 3127 3126 3124 3123 3121 3119 3117 3114 3112 3110 3107 3105 3103 3100 3097 3094 3091 3087 3084 3082 3078 3075 3071 3067 3063 3058 3054 3050 3045 3041 3037 3033 3029 3025
3136 3136 3137 3137 3138 3138 3139 3139 3139 3140 3140 3141 3141 3141 3141 3141 3141 3141 3141 3140 3139 3138 3136 3135 3133 3132 3131 3129 3128 3126 3125 3123 3121 3119 3117 3115 3113 3111 3108 3106 3103 3101 3099 3096 3093 3089 3086 3082 3079 3076 3072 3068 3064 3059 3055 3051 3046 3042 3037 3033 3029 3025 3021
3134 3135 3135 3136 3136 3137 3137 3137 3138 3138 3139 3140 3140 3140 3140 3140 3140 3140 3139 3138 3137 3136 3134 3133 3132 3131 3129 3128 3126 3125 3123 3121 3119 3118 3116 3114 3111 3109 3107 3105 3102 3100 3097 3095 3092 3089 3085 3082 3078 3074 3070 3065 3061 3057 3053 3049 3044 3039 3035 3031 3026 3021 3017
3133 3133 3134 3135 3135 3135 3136 3136 3137 3137 3138 3139 3139 3139 3139 3139 3139 3138 3138 3137 3136 3134 3133 3132 3131 3130 3128 3127 3125 3123 3121 3120 3118 3116 3115 3113 3110 3108 3106 3104 3101 3098 3096 3093 3090 3087 3084 3080 3077 3073 3068 3064 3060 3056 3051 3046 3042 3038 3033 3028 3024 3020 3014
3131 3132 3132 3133 3133 3134 3134 3135 3136 3136 3137 3137 3138 3138 3138 3138 3137 3137 3136 3135 3134 3133 3132 3131 3130 3128 3127 3125 3123 3122 3120 3118 3117 3115 3114 3112 3110 3107 3105 3103 3100 3097 3094 3091 3089 3086 3082 3079 3075 3071 3067 3063 3059 3055 3051 3045 3041 3036 3031 3026 3022 3018 3013
3129 3130 3131 3131 3132 3132 3133 3134 3134 3135 3136 3136 3136 3136 3136 3136 3136 3136 3135 3134 3133 3132 3131 3130 3128 3127 3125 3124 3122 3120 3119 3117 3116 3114 3112 3111 3109 3107 3104 3101 3099 3096 3093 3090 3087 3084 3080 3076 3073 3069 3066 3062 3059 3055 3050 3046 3042 3036 3031 3025 3020 3017 3012
3128 3128 3129 3130 3130 3131 3132 3133 3133 3134 3134 3135 3135 3135 3135 3135 3135 3134 3133 3133 3132 3131 3130 3128 3127 3125 3124 3122 3121 3119 3118 3116 3115 3113 3111 3110 3107 3105 3102 3100 3097 3094 3091 3088 3085 3081 3078 3074 3071 3068 3064 3061 3057 3053 3049 3045 3041 3036 3031 3025 3020 3016 3012
3126 3126 3127 3128 3129 3130 3130 3131 3132 3132 3133 3133 3134 3134 3134 3133 3133 3133 3132 3131 3130 3129 3128 3127 3125 3124 3122 3121 3120 3118 3117 3115 3114 3112 3110 3108 3106 3103 3101 3098 3096 3093 3090 3086 3083 3079 3075 3072 3069 3066 3063 3060 3056 3052 3048 3044 3039 3034 3029 3024 3019 3015 3011
3124 3124 3125 3126 3127 3128 3129 3130 3130 3131 3132 3132 3132 3132 3132 3132 3132 3131 3131 3130 3129 3128 3127 3125 3124 3122 3121 3120 3119 3117 3116 3115 3113 3111 3109 3107 3105 3103 3100 3098 3095 3092 3088 3085 3081 3078 3074 3071 3068 3065 3062 3058 3055 3051 3047 3043 3038 3033 3028 3023 3019 3015 3010
3122 3123 3123 3124 3125 3126 3127 3128 3129 3130 3130 3131 3131 3131 3131 3131 3130 3130 3130 3129 3128 3126 3125 3124 3122 3121 3120 3119 3118 3117 3116 3114 3112 3110 3108 3106 3104 3102 3099 3097 3093 3090 3087 3084 3080 3077 3074 3071 3067 3063 3060 3056 3053 3049 3045 3041 3037 3032 3028 3023 3018 3013 3009
3120 3121 3122 3123 3124 3125 3126 3126 3127 3128 3129 3129 3129 3130 3130 3130 3129 3129 3128 3127 3126 3125 3124 3123 3122 3121 3120 3119 3118 3117 3115 3113 3111 3109 3107 3105 3103 3101 3098 3096 3093 3089 3086 3083 3080 3077 3073 3070 3066 3062 3058 3054 3051 3047 3042 3038 3033 3029 3025 3020 3016 3011 3007
3118 3119 3120 3121 3122 3123 3124 3125 3126 3127 3127 3128 3128 3128 3129 3128 3128 3128 3127 3126 3125 3124 3123 3122 3122 3121 3120 3119 3118 3116 3114 3113 3111 3109 3107 3105 3103 3100 3098 3095 3092 3089 3086 3083 3080 3077 3073 3069 3065 3061 3056 3052 3049 3044 3040 3035 3030 3026 3021 3016 3012 3007 3003
3116 3117 3118 3119 3120 3121 3122 3123 3124 3125 3126 3126 3127 3127 3127 3127 3127 3126 3125 3125 3124 3123 3123 3122 3122 3121 3120 3119 3117 3116 3114 3112 3110 3109 3107 3105 3103 3100 3098 3095 3092 3089 3086 3083 3080 3077 3073 3069 3064 3060 3056 3051 3046 3042 3038 3034 3030 3024 3019 3014 3009 3005 3000
3114 3115 3116 3117 3118 3120 3121 3122 3123 3124 3125 3125 3126 3126 3126 3126 3125 3125 3124 3124 3123 3123 3122 3122 3121 3120 3119 3118 3117 3115 3114 3112 3110 3109 3107 3105 3103 3100 3097 3095 3092 3090 3087 3083 3080 3076 3072 3068 3064 3060 3055 3051 3046 3042 3038 3034 3029 3024 3018 3013 3008 3003 2997
3112 3113 3114 3115 3117 3118 3119 3120 3122 3122 3123 3124 3125 3125 3125 3125 3124 3124 3123 3123 3123 3122 3122 3122 3121 3120 3119 3117 3116 3115 3113 3112 3110 3109 3107 3105 3102 3100 3097 3094 3092 3089 3086 3083 3079 3076 3072 3068 3064 3060 3056 3051 3047 3043 3038 3034 3029 3023 3017 3012 3006 3001 2995
3110 3111 3113 3114 3115 3117 3118 3119 3120 3121 3122 3123 3123 3124 3124 3123 3123 3123 3122 3122 3122 3122 3122 3121 3120 3119 3118 3117 3115 3114 3113 3112 3110 3109 3107 3104 3102 3099 3097 3094 3092 3089 3086 3083 3079 3075 3071 3067 3063 3059 3056 3051 3047 3042 3038 3034 3029 3023 3017 3011 3005 3000 2993
3108 3110 3111 3112 3114 3115 3116 3118 3119 3120 3120 3121 3122 3122 3122 3122 3122 3122 3122 3122 3122 3122 3121 3121 3120 3119 3118 3116 3115 3114 3113 3111 3110 3108 3106 3104 3102 3099 3097 3094 3091 3089 3086 3083 3079 3075 3071 3067 3064 3059 3055 3051 3046 3042 3038 3033 3028 3022 3016 3010 3005 2999 2992